Weather Roundup
Issued by NWS Chicago, IL

Home | Current Version | Previous Version | Text Only | Print | Product List | Glossary Off
Versions: 1 2 3 4 5 6 7 8 9 10 11 12 13 14 15 16 17 18 19 20 21 22 23 24 25 26 27 28 29 30 31 32 33 34 35 36 37 38 39 40 41 42 43 44 45 46 47 48 49 50

000
NZUS59 KLOT 211003
HRRLOT

CHICAGO AREA WEATHER ROUNDUP
NATIONAL WEATHER SERVICE CHICAGO/ROMEOVILLE IL
400 AM CST WED FEB 21 2018

NOTE: "FAIR" INDICATES FEW OR NO CLOUDS BELOW 12,000 FEET WITH NO
SIGNIFICANT WEATHER AND/OR OBSTRUCTIONS TO VISIBILITY.

* THESE STATIONS ARE NOT UNDER NWS QUALITY CONTROL. THEY ALSO MAY NOT
  REPORT WEATHER SUCH AS PRECIPITATION OR FOG.

ILZ005-006-012>014-019>023-211100-
NORTHEAST ILLINOIS

CITY           SKY/WX    TMP DP  RH WIND       PRES   REMARKS
OHARE          CLOUDY    31  24  75 NW14      30.30R WCI  21
MIDWAY         CLOUDY    32  27  81 NW16      30.32R WCI  21
AURORA         CLOUDY    30  25  81 N15       30.33R WCI  19
LANSING*       LGT SNOW  32  32 100 CALM      30.29R
JOLIET*        CLOUDY    32  29  88 NW7       30.34R WCI  26
WAUKEGAN       MOCLDY    28  23  81 NW8G20    30.31R WCI  20
DUPAGE AIRPORT CLOUDY    29  26  89 NW14      30.32R WCI  18
WHEELING       CLOUDY    31  25  78 NW13      30.33R WCI  21
KANKAKEE*      LGT RAIN  32  32  99 N9        30.30R WCI  24
MORRIS*        CLOUDY    31  27  86 N6        30.33R WCI  25
LEWIS AIRPORT* CLOUDY    31  28  88 N12       30.33R WCI  22
NORTHERLY ISL    N/A     32  26  79 N6          N/A  WCI  26
$$

WIZ051-052-058>065-066-070>072-211100-
SOUTHEAST WISCONSIN

CITY           SKY/WX    TMP DP  RH WIND       PRES   REMARKS
MILWAUKEE      CLOUDY    27  19  72 NW15      30.32R WCI  15
KENOSHA*       CLOUDY    28  21  75 NW13      30.31R WCI  17
RACINE*        CLOUDY    27  21  78 NW12G21   30.33R WCI  17
BURLINGTON     MOCLDY    25  18  74 NW12      30.34R WCI  14
WAUKESHA       CLOUDY    23  18  80 NW15      30.33R WCI  10
WEST BEND      CLOUDY    23  18  80 NW12      30.33R WCI  12
$$

INZ001>003-010>013-019-020-211100-
NORTHWEST INDIANA

CITY           SKY/WX    TMP DP  RH WIND       PRES   REMARKS
GARY*          LGT SNOW  33  33 100 N13       30.30R WCI  23
MICHIGAN CITY* NOT AVBL
RENSSELAER*    NOT AVBL
VALPARAISO     FRZ RAIN  33  31  92 N9G20     30.27S FOG     WCI  25
$$

LMZ740>746-211100-
SOUTHERN LAKE MICHIGAN

STATION/POSITION TIME  SKY/WX   TEMP WIND        PRES    VSBY
                                AIR  DIR/SP/G
                 (UTC)          (F)  (DEG/KT/KT) (MB)    (MI)
HARRISON CRIB    0940            32  340/ 17/ 19   N/A
BURNHAM HARBOR   1000            32  310/ 11/ 15   N/A
CALUMET HARBOR   0930            32  330/ 13/ 18 1025.2R
BURNS HARBOR     0940            31  350/ 14/ 17 1025.7R
MICHIGAN CITY    0940            31  330/ 11/ 12   N/A
$$

ABBREVIATIONS USED IN REMARKS
   TC - TEMPERATURE IN CELSIUS
  WCI - WIND CHILL INDEX
   HX - HEAT INDEX
  VSB - VISIBILITY
$$




USA.gov is the U.S. government's official web portal to all federal, state and local government web resources and services.